Regional Weather Roundup
Issued by NWS

Home | Current Version | Previous Version | Graphics & Text | Print | Product List | Glossary On
Versions: 1 2 3 4 5 6 7 8 9 10 11 12 13 14 15 16 17 18 19 20 21 22 23 24 25 26 27 28 29 30 31 32 33 34 35 36 37 38 39 40 41 42 43 44 45 46 47 48 49 50
804
ASUS43 KIND 212310
RWRIN

WEATHER ROUNDUP FOR INDIANA
NATIONAL WEATHER SERVICE INDIANAPOLIS IN
700 PM EDT THU SEP 21 2017

NOTE: "FAIR" INDICATES FEW OR NO CLOUDS BELOW 12,000 FEET WITH NO
SIGNIFICANT WEATHER AND/OR OBSTRUCTIONS TO VISIBILITY.

* - STATION DOES NOT REPORT WEATHER SUCH AS PRECIPITATION OR FOG.

+ - STATION NOT QUALITY CONTROLLED BY THE NATIONAL WEATHER SERVICE.
    USE DATA WITH CAUTION...ESPECIALLY DEWPOINT AND RELATIVE
    HUMIDITY OBSERVATIONS.

INZ001>003-010>013-019-020-220000-
NORTHWEST INDIANA

CITY           SKY/WX    TMP DP  RH WIND       PRES   REMARKS
GARY /AIRPORT/ PTCLDY    91  66  43 S6        29.98F
KNOX *+        CLEAR     86  70  58 S5        30.00S
LA PORTE +     CLEAR     88  70  55 CALM      30.01S
MICHIGAN CITY+ CLEAR     82  73  74 CALM      30.00S
MONTICELLO +   CLEAR     87  71  57 CALM      30.00S
RENSSELAER +   CLEAR     88  61  40 SW5       30.00S
VALPARAISO     CLEAR     90  70  51 S5        30.00F HX  95

$$

LMZ046-743>745-220000-
SOUTHERN LAKE MICHIGAN

STATION/POSITION TIME  TEMP    WIND        PRES    WAVE
                       AIR SEA DIR/SP/G            HT
                 (UTC) (F)     (DEG/KT/KT) (MB)    (FT)
BURNS HARBOR     2240   77      80/ 10/ 11 1015.9S
MICHIGAN CITY    2240   76      40/ 12/ 12   N/A
5NW MICH CITY    2300   74 72   90/  6/  8   N/A     1

$$

INZ004-005-014>016-021>024-220000-
NORTH CENTRAL INDIANA

CITY           SKY/WX    TMP DP  RH WIND       PRES   REMARKS
ELKHART        PTCLDY    88  70  55 CALM      30.02R
GOSHEN         CLEAR     88  69  53 S5        30.02S
LOGANSPORT +   CLEAR     86  68  54 SW3       30.02S
PERU/GRISSOM   CLEAR     87  71  57 S5        30.01S
SOUTH BEND     CLEAR     87  72  60 S6        30.01F
WARSAW +       CLEAR     86  72  62 CALM      30.03S

$$

INZ006>009-017-018-025>027-220000-
NORTHEAST INDIANA

CITY           SKY/WX    TMP DP  RH WIND       PRES   REMARKS
AUBURN +       CLEAR     84  70  61 CALM      30.04S
FORT WAYNE     PTCLDY    86  73  65 SW3       30.04R
HUNTINGTON +   CLEAR     87  68  53 CALM      30.02S
KENDALLVILLE + CLOUDY    85  70  60 CALM      30.05S

$$

INZ028-029-035-036-043>045-051>053-220000-
WEST CENTRAL INDIANA

CITY           SKY/WX    TMP DP  RH WIND       PRES   REMARKS
CRAWFORDSVL +  CLEAR     84  66  54 S5        30.02S
GREENCASTLE +  CLEAR     86  64  48 CALM      30.03S
LAFAYETTE      CLEAR     88  70  55 SW3       29.99S
TERRE HAUTE    CLEAR     90  64  42 S5        30.00F

$$

INZ030>032-037>040-046>048-054>057-064-065-220000-
CENTRAL INDIANA

CITY           SKY/WX    TMP DP  RH WIND       PRES   REMARKS
CP ATTERBURY + CLEAR     86  70  58 CALM      30.03S
COLUMBUS       CLEAR     84  63  48 SW5       30.02F
FISHERS *+     CLEAR     86  72  62 SW5       30.03S
FRANKFORT +    MOCLDY    89  69  51 CALM      30.04S
GREENWOOD *+   CLEAR     93  74  52 S3        30.03S HX 103
INDIANAPOLIS   PTCLDY    87  67  51 S6        30.02S
-EAGLE CREEK   CLEAR     89  66  46 S6        30.02R
KOKOMO +       CLEAR     84  72  67 S6        30.03S
MARION +       CLEAR     88  66  48 CALM      30.04S HAZE
MT COMFORT *+  CLEAR     88  68  51 CALM      30.04S
SHELBYVILLE    CLEAR     87  67  51 SW5       30.02S
ZIONSVILLE +   CLEAR     84  71  65 SW3       30.04S

$$

INZ033-034-041-042-049-050-058-059-220000-
EAST CENTRAL INDIANA

CITY           SKY/WX    TMP DP  RH WIND       PRES   REMARKS
MUNCIE         CLEAR     89  68  49 CALM      30.03S
RICHMOND +     CLEAR     84  66  54 W3        30.06S

$$

INZ060-061-067>069-081>083-085>088-220000-
SOUTHWEST INDIANA

CITY           SKY/WX    TMP DP  RH WIND       PRES   REMARKS
EVANSVILLE     CLEAR     89  68  49 CALM      29.99F
HUNTINGBURG +  CLEAR     87  72  60 SE3       30.01S
WASHINGTON +   PTCLDY    90  63  41 S3        30.00S

$$

INZ062-063-066-070>080-084-089>092-220000-
SOUTH CENTRAL AND SOUTHEAST INDIANA

CITY           SKY/WX    TMP DP  RH WIND       PRES   REMARKS
BEDFORD +      CLEAR     86  68  54 CALM      30.01F
BLOOMINGTON    CLEAR     88  67  49 S5        30.03S
MADISON *+     CLEAR     82  73  74 CALM      30.05F
NORTH VERNON + CLEAR     84  73  70 CALM      30.04S
SEYMOUR +      CLEAR     88  68  51 CALM      30.02S

$$





USA.gov is the U.S. government's official web portal to all federal, state and local government web resources and services.